Thurmont, MD

6:26 AM EDT on September 26, 2017 (GMT -0400)
Thurmont

Weather History for KRSP - September, 2013

Change the Weather History Date:

Friday, September 20, 2013

  Actual Average (KHGR) Record (KHGR)
Temperature  
Mean Temperature 66 °F -  
Max Temperature 73 °F 72 °F 87 °F (2016)
Min Temperature 59 °F 53 °F 44 °F (2004)
Cooling Degree Days 1    
Growing Degree Days 16 (Base 50)    
Moisture  
Dew Point 56 °F    
Average Humidity 72    
Maximum Humidity 88    
Minimum Humidity 55    
Precipitation  
Precipitation 0.00 in - - ()
Sea Level Pressure  
Sea Level Pressure 30.07 in    
Wind  
Wind Speed 5 mph (SSW)    
Max Wind Speed 9 mph    
Max Gust Speed -    
Averages and records for this station are not official NWS values.
T = Trace of Precipitation, MM = Missing Value Source: NWS Daily Summary

Daily Weather History Graph

Daily Weather History Graph

Search for Another Location

Airport or City:

Trip Planner

Search our weather history database for the weather conditions in past years. The results will help you decide how hot, cold, wet, or windy it might be!

Date:

Astronomy

Sep. 20, 2013 Rise Set
Actual Time 6:55 AM EDT 7:09 PM EDT
Civil Twilight 6:28 AM EDT 7:36 PM EDT
Nautical Twilight 5:57 AM EDT 8:08 PM EDT
Astronomical Twilight 5:25 AM EDT 8:40 PM EDT
Moon 7:42 PM EDT (9/20) 8:07 AM EDT (9/20)
Length of Visible Light 13h 07m
Length of Day
12h 14m
Full, 98% of the Moon is Illuminated
Sep 20
Full
Sep 26
Last Quarter
Oct 4
New
Oct 11
First Quarter
Oct 18
Full

Hourly Weather History & Observations

Time (EDT) Temp. Dew Point Humidity Pressure Visibility Wind Dir Wind Speed Gust Speed Precip Events Conditions
12:54 AM 60.1 °F 54.0 °F 80% 30.12 in - WSW 4.6 mph - N/A   Clear
1:54 AM 60.1 °F 54.0 °F 80% 30.12 in - WSW 5.8 mph - N/A   Clear
2:54 AM 60.1 °F 54.0 °F 80% 30.10 in - WSW 4.6 mph - N/A   Clear
3:54 AM 60.1 °F 54.0 °F 80% 30.11 in - Variable 4.6 mph - N/A   Clear
4:54 AM 60.1 °F 54.0 °F 80% 30.11 in - WSW 4.6 mph - N/A   Scattered Clouds
5:54 AM 59.0 °F 54.0 °F 83% 30.11 in - SW 4.6 mph - N/A   Partly Cloudy
6:54 AM 59.0 °F 54.0 °F 83% 30.11 in - SW 6.9 mph - N/A   Clear
7:54 AM 60.1 °F 54.0 °F 80% 30.11 in - SSW 4.6 mph - N/A   Clear
8:54 AM 63.0 °F 55.9 °F 78% 30.11 in - SW 3.5 mph - N/A   Clear
9:54 AM 64.9 °F 55.9 °F 73% 30.10 in - Variable 4.6 mph - N/A   Clear
10:54 AM 68.0 °F 57.0 °F 68% 30.09 in - Variable 3.5 mph - N/A   Clear
11:54 AM 69.1 °F 57.0 °F 65% 30.09 in - Variable 6.9 mph - N/A   Clear
12:54 PM 71.1 °F 57.0 °F 61% 30.08 in - SSE 8.1 mph - N/A   Scattered Clouds
1:54 PM 72.0 °F 55.9 °F 57% 30.07 in - South 4.6 mph - N/A   Partly Cloudy
2:54 PM 71.1 °F 55.9 °F 59% 30.06 in - Variable 6.9 mph - N/A   Overcast
3:54 PM 73.0 °F 57.9 °F 59% 30.03 in - South 8.1 mph - N/A   Overcast
4:54 PM 73.9 °F 57.0 °F 55% 30.01 in - Variable 4.6 mph - N/A   Scattered Clouds
5:54 PM 71.1 °F 55.9 °F 59% 30.01 in - SSW 6.9 mph - N/A   Clear
6:54 PM 66.9 °F 55.9 °F 68% 30.01 in - SSW 4.6 mph - N/A   Clear
7:54 PM 66.0 °F 55.9 °F 70% 30.00 in - Variable 5.8 mph - N/A   Clear
8:54 PM 64.0 °F 55.9 °F 75% 30.01 in - South 8.1 mph - N/A   Clear
9:54 PM 62.1 °F 57.0 °F 84% 30.01 in - South 8.1 mph - N/A   Scattered Clouds
10:13 PM 60.8 °F 57.2 °F 88% 30.03 in - SSW 9.2 mph - N/A   Mostly Cloudy